| time (UTC) | temp F | wind direction | speed MPH | gust MPH | rain 1hr in | rain 24hr in | rain mn in | humidity % | barometer mb |
| 20260510175309 | 70 | 253 | 4.0 | 7.0 | 0.00 | 0.00 | 0.00 | 64 | 1013.1 |
| 20260510174806 | 71 | 350 | 3.0 | 7.0 | 0.00 | 0.00 | 0.00 | 65 | 1013.3 |
| 20260510174303 | 71 | 234 | 5.0 | 7.0 | 0.00 | 0.00 | 0.00 | 67 | 1013.1 |
| 20260510173759 | 70 | 49 | 0.0 | 3.0 | 0.00 | 0.00 | 0.00 | 69 | 1013.2 |
| 20260510173255 | 68 | 92 | 0.0 | 4.0 | 0.00 | 0.00 | 0.00 | 72 | 1013.0 |
| 20260510172751 | 68 | 345 | 1.0 | 5.0 | 0.00 | 0.00 | 0.00 | 72 | 1013.1 |
| 20260510172247 | 68 | 312 | 3.0 | 4.0 | 0.00 | 0.00 | 0.00 | 71 | 1013.2 |
| 20260510171744 | 68 | 267 | 3.0 | 5.0 | 0.00 | 0.00 | 0.00 | 71 | 1013.2 |
| 20260510171241 | 68 | 85 | 3.0 | 9.0 | 0.00 | 0.00 | 0.00 | 72 | 1013.4 |
| 20260510170738 | 68 | 294 | 5.0 | 10.0 | 0.00 | 0.00 | 0.00 | 72 | 1013.4 |
| 20260510170234 | 69 | 335 | 4.0 | 7.0 | 0.00 | 0.00 | 0.00 | 71 | 1013.3 |
| 20260510165730 | 68 | 277 | 4.0 | 11.0 | 0.00 | 0.00 | 0.00 | 73 | 1013.3 |
| 20260510165226 | 68 | 348 | 2.0 | 5.0 | 0.00 | 0.00 | 0.00 | 71 | 1013.4 |
| 20260510164724 | 68 | 1 | 5.0 | 11.0 | 0.00 | 0.00 | 0.00 | 72 | 1013.5 |
| 20260510164221 | 68 | 309 | 2.0 | 5.0 | 0.00 | 0.00 | 0.00 | 74 | 1013.6 |
| 20260510163716 | 68 | 253 | 2.0 | 8.0 | 0.00 | 0.00 | 0.00 | 75 | 1013.5 |
| 20260510163212 | 67 | 245 | 5.0 | 6.0 | 0.00 | 0.00 | 0.00 | 75 | 1013.5 |
| 20260510162711 | 67 | 2 | 2.0 | 6.0 | 0.00 | 0.00 | 0.00 | 74 | 1013.8 |
| 20260510162209 | 67 | 285 | 4.0 | 10.0 | 0.00 | 0.00 | 0.00 | 73 | 1013.8 |
| 20260510161704 | 66 | 300 | 3.0 | 6.0 | 0.00 | 0.00 | 0.00 | 77 | 1013.8 |
| 20260510161201 | 67 | 330 | 3.0 | 8.0 | 0.00 | 0.00 | 0.00 | 74 | 1013.8 |
| 20260510160658 | 66 | 336 | 0.0 | 5.0 | 0.00 | 0.00 | 0.00 | 79 | 1013.7 |
| 20260510160153 | 67 | 311 | 2.0 | 5.0 | 0.00 | 0.00 | 0.00 | 76 | 1013.6 |
| 20260510155649 | 66 | 314 | 0.0 | 7.0 | 0.00 | 0.00 | 0.00 | 75 | 1013.8 |
| 20260510155145 | 67 | 305 | 5.0 | 7.0 | 0.00 | 0.00 | 0.00 | 72 | 1014.0 |
| 20260510154641 | 66 | 279 | 6.0 | 6.0 | 0.00 | 0.00 | 0.00 | 75 | 1013.8 |
| 20260510154137 | 66 | 305 | 2.0 | 8.0 | 0.00 | 0.00 | 0.00 | 76 | 1014.0 |
| 20260510153632 | 67 | 226 | 4.0 | 10.0 | 0.00 | 0.00 | 0.00 | 75 | 1014.1 |
| 20260510153129 | 67 | 269 | 3.0 | 6.0 | 0.00 | 0.00 | 0.00 | 76 | 1014.2 |
| 20260510152626 | 66 | 305 | 3.0 | 7.0 | 0.00 | 0.00 | 0.00 | 76 | 1014.1 |
| 20260510152122 | 65 | 69 | 1.0 | 9.0 | 0.00 | 0.00 | 0.00 | 77 | 1014.2 |
| 20260510151618 | 66 | 304 | 2.0 | 4.0 | 0.00 | 0.00 | 0.00 | 81 | 1014.3 |
| 20260510151117 | 64 | 340 | 0.0 | 6.0 | 0.00 | 0.00 | 0.00 | 78 | 1014.1 |
| 20260510150617 | 64 | 299 | 4.0 | 7.0 | 0.00 | 0.00 | 0.00 | 80 | 1014.2 |
| 20260510150113 | 63 | 218 | 3.0 | 5.0 | 0.00 | 0.00 | 0.00 | 84 | 1014.4 |
| 20260510145609 | 61 | 162 | 2.0 | 3.0 | 0.00 | 0.00 | 0.00 | 87 | 1014.1 |
| 20260510145106 | 62 | 286 | 3.0 | 7.0 | 0.00 | 0.00 | 0.00 | 84 | 1014.2 |
| 20260510144602 | 60 | 304 | 4.0 | 7.0 | 0.00 | 0.00 | 0.00 | 86 | 1014.1 |
| 20260510144058 | 61 | 249 | 4.0 | 5.0 | 0.00 | 0.00 | 0.00 | 87 | 1014.0 |
| 20260510143554 | 61 | 312 | 3.0 | 5.0 | 0.00 | 0.00 | 0.00 | 87 | 1014.0 |
| 20260510143050 | 60 | 150 | 3.0 | 4.0 | 0.00 | 0.00 | 0.00 | 87 | 1014.2 |
| 20260510142547 | 58 | 340 | 3.0 | 8.0 | 0.00 | 0.00 | 0.00 | 88 | 1014.3 |
| 20260510142044 | 58 | 290 | 3.0 | 7.0 | 0.00 | 0.00 | 0.00 | 89 | 1014.3 |
| 20260510141540 | 58 | 255 | 8.0 | 8.0 | 0.00 | 0.00 | 0.00 | 89 | 1014.4 |
| 20260510141038 | 58 | 270 | 5.0 | 8.0 | 0.00 | 0.00 | 0.00 | 89 | 1014.4 |
| 20260510140534 | 57 | 17 | 0.0 | 5.0 | 0.00 | 0.00 | 0.00 | 91 | 1014.4 |
| 20260510140034 | 59 | 321 | 3.0 | 3.0 | 0.00 | 0.00 | 0.00 | 89 | 1014.5 |
| 20260510135530 | 59 | 160 | 2.0 | 3.0 | 0.00 | 0.00 | 0.00 | 92 | 1014.4 |
| 20260510135026 | 56 | 38 | 1.0 | 4.0 | 0.00 | 0.00 | 0.00 | 94 | 1014.2 |
| 20260510134524 | 56 | 312 | 3.0 | 4.0 | 0.00 | 0.00 | 0.00 | 92 | 1014.1 |
| 20260510134020 | 55 | 184 | 0.0 | 2.0 | 0.00 | 0.00 | 0.00 | 96 | 1014.1 |
| 20260510133516 | 54 | 254 | 2.0 | 3.0 | 0.00 | 0.00 | 0.00 | 96 | 1014.2 |
| 20260510133013 | 55 | 199 | 1.0 | 4.0 | 0.00 | 0.00 | 0.00 | 96 | 1014.2 |
| 20260510132509 | 54 | 208 | 0.0 | 5.0 | 0.00 | 0.00 | 0.00 | 97 | 1014.3 |
| 20260510132006 | 54 | 217 | 0.0 | 1.0 | 0.00 | 0.00 | 0.00 | 97 | 1014.4 |
| 20260510131504 | 55 | 55 | 0.0 | 2.0 | 0.00 | 0.00 | 0.00 | 97 | 1014.3 |
| 20260510131001 | 54 | 70 | 1.0 | 2.0 | 0.00 | 0.00 | 0.00 | 97 | 1014.5 |
| 20260510130457 | 54 | 115 | 1.0 | 3.0 | 0.00 | 0.00 | 0.00 | 97 | 1014.4 |
| 20260510125954 | 55 | 282 | 0.0 | 2.0 | 0.00 | 0.00 | 0.00 | 97 | 1014.3 |
| 20260510125451 | 54 | 301 | 0.0 | 3.0 | 0.00 | 0.00 | 0.00 | 96 | 1014.2 |
| 20260510124947 | 54 | 296 | 0.0 | 2.0 | 0.00 | 0.00 | 0.00 | 97 | 1014.1 |
| 20260510124443 | 53 | 311 | 1.0 | 2.0 | 0.00 | 0.00 | 0.00 | 97 | 1014.2 |
| 20260510123941 | 53 | 20 | 1.0 | 2.0 | 0.00 | 0.00 | 0.00 | 99 | 1014.0 |
| 20260510123436 | 52 | 242 | 1.0 | 2.0 | 0.00 | 0.00 | 0.00 | 99 | 1014.1 |
| 20260510122932 | 53 | 289 | 1.0 | 3.0 | 0.00 | 0.00 | 0.00 | 99 | 1014.0 |
| 20260510122433 | 52 | 247 | 1.0 | 3.0 | 0.00 | 0.00 | 0.00 | 99 | 1013.9 |
| 20260510121929 | 52 | 320 | 2.0 | 2.0 | 0.00 | 0.00 | 0.00 | 99 | 1014.1 |
| 20260510121427 | 52 | 324 | 0.0 | 3.0 | 0.00 | 0.00 | 0.00 | 99 | 1014.1 |
| 20260510120924 | 52 | 304 | 0.0 | 1.0 | 0.00 | 0.00 | 0.00 | 99 | 1014.0 |
| 20260510120421 | 52 | 273 | 2.0 | 2.0 | 0.00 | 0.00 | 0.00 | 99 | 1014.0 |
| 20260510115917 | 53 | 132 | 0.0 | 1.0 | 0.00 | 0.00 | 0.00 | 99 | 1013.9 |
| 20260510115414 | 51 | 264 | 0.0 | 1.0 | 0.00 | 0.00 | 0.00 | 99 | 1014.1 |
| 20260510114910 | 52 | 247 | 0.0 | 1.0 | 0.00 | 0.00 | 0.00 | 99 | 1014.2 |
| 20260510114407 | 51 | 330 | 0.0 | 1.0 | 0.00 | 0.00 | 0.00 | 99 | 1014.0 |
| 20260510113902 | 52 | 17 | 0.0 | 1.0 | 0.00 | 0.00 | 0.00 | 99 | 1013.9 |
| 20260510113358 | 52 | 217 | 0.0 | 1.0 | 0.00 | 0.00 | 0.00 | 99 | 1013.8 |
| 20260510112855 | 52 | 125 | 0.0 | 1.0 | 0.00 | 0.00 | 0.00 | 99 | 1013.7 |
| 20260510112353 | 52 | 164 | 0.0 | 2.0 | 0.00 | 0.00 | 0.00 | 99 | 1013.6 |
| 20260510111848 | 51 | 214 | 1.0 | 2.0 | 0.00 | 0.00 | 0.00 | 99 | 1013.6 |
| 20260510111345 | 52 | 90 | 0.0 | 2.0 | 0.00 | 0.00 | 0.00 | 99 | 1013.7 |
| 20260510110840 | 51 | 189 | 0.0 | 0.0 | 0.00 | 0.00 | 0.00 | 99 | 1013.5 |
| 20260510110338 | 51 | 152 | 0.0 | 2.0 | 0.00 | 0.00 | 0.00 | 99 | 1013.4 |
| 20260510105834 | 51 | 242 | 0.0 | 2.0 | 0.00 | 0.00 | 0.00 | 99 | 1013.6 |
| 20260510105333 | 51 | 129 | 0.0 | 1.0 | 0.00 | 0.00 | 0.00 | 99 | 1013.6 |
| 20260510104830 | 51 | 137 | 0.0 | 1.0 | 0.00 | 0.00 | 0.00 | 99 | 1013.5 |
| 20260510104327 | 51 | 153 | 0.0 | 2.0 | 0.00 | 0.00 | 0.00 | 99 | 1013.4 |
| 20260510103823 | 51 | 156 | 0.0 | 2.0 | 0.00 | 0.00 | 0.00 | 99 | 1013.4 |
| 20260510103320 | 51 | 237 | 1.0 | 2.0 | 0.00 | 0.00 | 0.00 | 99 | 1013.3 |
| 20260510102816 | 51 | 242 | 0.0 | 1.0 | 0.00 | 0.00 | 0.00 | 99 | 1013.3 |
| 20260510102312 | 51 | 15 | 1.0 | 4.0 | 0.00 | 0.00 | 0.00 | 99 | 1013.3 |
| 20260510101809 | 51 | 249 | 0.0 | 2.0 | 0.00 | 0.00 | 0.00 | 99 | 1013.5 |
| 20260510101307 | 51 | 33 | 0.0 | 3.0 | 0.00 | 0.00 | 0.00 | 99 | 1013.4 |
| 20260510100803 | 51 | 247 | 0.0 | 3.0 | 0.00 | 0.00 | 0.00 | 99 | 1013.1 |
| 20260510100301 | 51 | 156 | 0.0 | 3.0 | 0.00 | 0.00 | 0.00 | 99 | 1013.0 |
| 20260510095756 | 51 | 258 | 0.0 | 1.0 | 0.00 | 0.00 | 0.00 | 99 | 1012.8 |
| 20260510095251 | 51 | 28 | 2.0 | 3.0 | 0.00 | 0.00 | 0.00 | 99 | 1013.0 |
| 20260510094750 | 51 | 186 | 2.0 | 3.0 | 0.00 | 0.00 | 0.00 | 99 | 1012.9 |
| 20260510094246 | 51 | 208 | 1.0 | 2.0 | 0.00 | 0.00 | 0.00 | 99 | 1013.2 |
| 20260510093742 | 51 | 20 | 2.0 | 3.0 | 0.00 | 0.00 | 0.00 | 99 | 1013.3 |
| 20260510093240 | 51 | 224 | 0.0 | 2.0 | 0.00 | 0.00 | 0.00 | 99 | 1013.0 |
| 20260510092735 | 51 | 166 | 1.0 | 2.0 | 0.00 | 0.00 | 0.00 | 99 | 1013.1 |
| 20260510092231 | 51 | 242 | 0.0 | 2.0 | 0.00 | 0.00 | 0.00 | 99 | 1013.4 |
| 20260510091727 | 51 | 33 | 0.0 | 2.0 | 0.00 | 0.00 | 0.00 | 99 | 1013.1 |
| 20260510091224 | 51 | 18 | 2.0 | 3.0 | 0.00 | 0.00 | 0.00 | 99 | 1013.2 |
| 20260510090720 | 51 | 212 | 2.0 | 3.0 | 0.00 | 0.00 | 0.00 | 99 | 1013.1 |
| 20260510090218 | 51 | 98 | 0.0 | 2.0 | 0.00 | 0.00 | 0.00 | 99 | 1013.2 |
| 20260510085712 | 51 | 180 | 1.0 | 2.0 | 0.00 | 0.00 | 0.00 | 99 | 1013.3 |
| 20260510085207 | 51 | 189 | 0.0 | 3.0 | 0.00 | 0.00 | 0.00 | 99 | 1013.3 |
| 20260510084704 | 51 | 193 | 1.0 | 2.0 | 0.00 | 0.00 | 0.00 | 99 | 1013.4 |
| 20260510084201 | 51 | 288 | 0.0 | 2.0 | 0.00 | 0.00 | 0.00 | 99 | 1013.7 |
| 20260510083658 | 51 | 222 | 0.0 | 1.0 | 0.00 | 0.00 | 0.00 | 99 | 1013.5 |
| 20260510083154 | 51 | 9 | 0.0 | 2.0 | 0.00 | 0.00 | 0.00 | 99 | 1013.4 |
| 20260510082645 | 51 | 330 | 0.0 | 1.0 | 0.00 | 0.00 | 0.00 | 99 | 1013.3 |
| 20260510082141 | 51 | 153 | 1.0 | 2.0 | 0.00 | 0.00 | 0.00 | 99 | 1013.2 |
| 20260510081635 | 51 | 122 | 1.0 | 2.0 | 0.00 | 0.00 | 0.00 | 99 | 1013.2 |
| 20260510081132 | 51 | 242 | 0.0 | 1.0 | 0.00 | 0.00 | 0.00 | 99 | 1013.3 |
| 20260510080630 | 51 | 96 | 2.0 | 3.0 | 0.00 | 0.00 | 0.00 | 99 | 1013.3 |
| 20260510080127 | 52 | 62 | 0.0 | 0.0 | 0.00 | 0.00 | 0.00 | 99 | 1013.1 |
| 20260510075625 | 52 | 9 | 0.0 | 2.0 | 0.00 | 0.00 | 0.00 | 99 | 1013.3 |
| 20260510075122 | 52 | 49 | 0.0 | 2.0 | 0.00 | 0.00 | 0.00 | 99 | 1013.1 |
| 20260510074619 | 52 | 158 | 0.0 | 1.0 | 0.00 | 0.00 | 0.00 | 99 | 1013.3 |
| 20260510074114 | 52 | 26 | 0.0 | 1.0 | 0.00 | 0.00 | 0.00 | 99 | 1013.2 |
| 20260510073610 | 52 | 165 | 1.0 | 1.0 | 0.00 | 0.00 | 0.00 | 99 | 1012.9 |
| 20260510073108 | 52 | 144 | 0.0 | 2.0 | 0.00 | 0.00 | 0.00 | 99 | 1013.1 |
| 20260510072604 | 52 | 158 | 1.0 | 2.0 | 0.00 | 0.00 | 0.00 | 99 | 1013.0 |
| 20260510072100 | 52 | 344 | 0.0 | 1.0 | 0.00 | 0.00 | 0.00 | 99 | 1012.9 |
| 20260510071556 | 52 | 203 | 1.0 | 2.0 | 0.00 | 0.00 | 0.00 | 99 | 1013.0 |
| 20260510071055 | 52 | 150 | 0.0 | 1.0 | 0.00 | 0.00 | 0.00 | 99 | 1012.9 |
| 20260510070551 | 52 | 137 | 0.0 | 1.0 | 0.00 | 0.00 | 0.00 | 99 | 1013.0 |
| 20260510070048 | 52 | 150 | 0.0 | 1.0 | 0.00 | 0.00 | 0.00 | 99 | 1012.9 |
| 20260510065544 | 52 | 175 | 0.0 | 0.0 | 0.00 | 0.00 | 0.00 | 99 | 1013.1 |
| 20260510065041 | 52 | 175 | 0.0 | 0.0 | 0.00 | 0.00 | 0.00 | 99 | 1013.0 |
| 20260510064537 | 52 | 242 | 0.0 | 1.0 | 0.00 | 0.00 | 0.00 | 99 | 1013.2 |
| 20260510064034 | 52 | 218 | 0.0 | 1.0 | 0.00 | 0.00 | 0.00 | 99 | 1013.0 |
| 20260510063531 | 52 | 324 | 0.0 | 0.0 | 0.00 | 0.00 | 0.00 | 99 | 1013.1 |
| 20260510063028 | 52 | 324 | 0.0 | 1.0 | 0.00 | 0.00 | 0.00 | 99 | 1012.9 |
| 20260510062524 | 52 | 55 | 0.0 | 1.0 | 0.00 | 0.00 | 0.00 | 99 | 1012.8 |
| 20260510062019 | 52 | 162 | 0.0 | 0.0 | 0.00 | 0.00 | 0.00 | 99 | 1012.6 |
| 20260510061516 | 52 | 142 | 0.0 | 1.0 | 0.00 | 0.00 | 0.00 | 99 | 1012.6 |
| 20260510061012 | 52 | 137 | 0.0 | 0.0 | 0.00 | 0.00 | 0.00 | 99 | 1012.7 |
| 20260510060509 | 52 | 137 | 0.0 | 0.0 | 0.00 | 0.00 | 0.00 | 99 | 1012.4 |
| 20260510060006 | 52 | 137 | 0.0 | 1.0 | 0.00 | 0.00 | 0.00 | 99 | 1012.6 |
| 20260510055501 | 52 | 273 | 0.0 | 0.0 | 0.00 | 0.00 | 0.00 | 99 | 1012.9 |
| 20260510054959 | 52 | 217 | 0.0 | 1.0 | 0.00 | 0.00 | 0.00 | 99 | 1012.7 |
| 20260510054454 | 52 | 150 | 0.0 | 0.0 | 0.00 | 0.00 | 0.00 | 99 | 1012.6 |
| 20260510053950 | 52 | 150 | 0.0 | 1.0 | 0.00 | 0.00 | 0.00 | 99 | 1012.9 |
| 20260510053445 | 52 | 264 | 0.0 | 1.0 | 0.00 | 0.00 | 0.00 | 99 | 1012.8 |
| 20260510052942 | 52 | 254 | 0.0 | 0.0 | 0.00 | 0.00 | 0.00 | 99 | 1012.8 |
| 20260510052438 | 52 | 305 | 0.0 | 1.0 | 0.00 | 0.00 | 0.00 | 99 | 1012.7 |
| 20260510051934 | 52 | 162 | 0.0 | 0.0 | 0.00 | 0.00 | 0.00 | 99 | 1012.5 |
| 20260510051430 | 52 | 162 | 0.0 | 0.0 | 0.00 | 0.00 | 0.00 | 99 | 1012.8 |
| 20260510050927 | 52 | 162 | 0.0 | 0.0 | 0.00 | 0.00 | 0.00 | 99 | 1012.9 |
| 20260510050424 | 52 | 132 | 0.0 | 0.0 | 0.00 | 0.00 | 0.00 | 99 | 1012.8 |
| 20260510045921 | 52 | 132 | 0.0 | 1.0 | 0.00 | 0.00 | 0.00 | 99 | 1012.9 |
| 20260510045418 | 52 | 137 | 0.0 | 1.0 | 0.00 | 0.00 | 0.00 | 99 | 1013.0 |
| 20260510044915 | 52 | 115 | 0.0 | 0.0 | 0.00 | 0.00 | 0.00 | 99 | 1012.8 |
| 20260510044412 | 52 | 115 | 0.0 | 0.0 | 0.00 | 0.00 | 0.00 | 99 | 1012.9 |
| 20260510043908 | 52 | 115 | 0.0 | 0.0 | 0.00 | 0.00 | 0.00 | 99 | 1012.9 |
| 20260510043404 | 52 | 91 | 0.0 | 1.0 | 0.00 | 0.00 | 0.00 | 99 | 1012.6 |
| 20260510042903 | 52 | 254 | 0.0 | 0.0 | 0.00 | 0.00 | 0.00 | 99 | 1013.0 |
| 20260510042358 | 52 | 262 | 0.0 | 1.0 | 0.00 | 0.00 | 0.00 | 99 | 1012.8 |
| 20260510041854 | 52 | 189 | 0.0 | 1.0 | 0.00 | 0.00 | 0.00 | 99 | 1012.6 |
| 20260510041352 | 52 | 165 | 0.0 | 1.0 | 0.00 | 0.00 | 0.00 | 99 | 1012.7 |
| 20260510040849 | 52 | 150 | 0.0 | 1.0 | 0.00 | 0.00 | 0.00 | 99 | 1012.6 |
| 20260510040346 | 52 | 150 | 0.0 | 1.0 | 0.00 | 0.00 | 0.00 | 99 | 1012.7 |
| 20260510035841 | 52 | 144 | 0.0 | 0.0 | 0.00 | 0.50 | 0.50 | 99 | 1012.7 |
| 20260510035337 | 52 | 137 | 0.0 | 1.0 | 0.00 | 0.50 | 0.50 | 99 | 1012.8 |
| 20260510034833 | 53 | 235 | 0.0 | 2.0 | 0.00 | 0.50 | 0.50 | 99 | 1012.9 |
| 20260510034331 | 53 | 87 | 0.0 | 1.0 | 0.00 | 0.50 | 0.50 | 99 | 1012.9 |
| 20260510033827 | 53 | 247 | 0.0 | 2.0 | 0.00 | 0.50 | 0.50 | 99 | 1012.8 |
| 20260510033324 | 53 | 264 | 0.0 | 1.0 | 0.00 | 0.50 | 0.50 | 99 | 1012.9 |
| 20260510032821 | 53 | 242 | 0.0 | 2.0 | 0.00 | 0.50 | 0.50 | 99 | 1012.8 |
| 20260510032318 | 53 | 227 | 2.0 | 3.0 | 0.00 | 0.50 | 0.50 | 99 | 1012.7 |
| 20260510031813 | 53 | 335 | 0.0 | 3.0 | 0.00 | 0.50 | 0.50 | 99 | 1012.7 |
| 20260510031309 | 53 | 0 | 2.0 | 4.0 | 0.00 | 0.50 | 0.50 | 99 | 1012.9 |
| 20260510030803 | 53 | 39 | 0.0 | 2.0 | 0.00 | 0.50 | 0.50 | 99 | 1013.0 |
| 20260510030300 | 53 | 277 | 0.0 | 3.0 | 0.00 | 0.50 | 0.50 | 99 | 1013.0 |
| 20260510025757 | 53 | 59 | 0.0 | 2.0 | 0.00 | 0.50 | 0.50 | 99 | 1012.9 |
| 20260510025255 | 53 | 307 | 0.0 | 2.0 | 0.00 | 0.50 | 0.50 | 99 | 1012.8 |
| 20260510024751 | 53 | 335 | 0.0 | 2.0 | 0.00 | 0.50 | 0.50 | 99 | 1012.7 |
| 20260510024248 | 53 | 250 | 2.0 | 5.0 | 0.00 | 0.50 | 0.50 | 99 | 1012.5 |
| 20260510023743 | 53 | 304 | 2.0 | 6.0 | 0.00 | 0.50 | 0.50 | 99 | 1012.3 |
| 20260510023235 | 53 | 319 | 2.0 | 3.0 | 0.00 | 0.50 | 0.50 | 99 | 1012.7 |
| 20260510022731 | 53 | 162 | 0.0 | 1.0 | 0.00 | 0.50 | 0.50 | 99 | 1012.6 |
| 20260510022226 | 53 | 270 | 0.0 | 2.0 | 0.00 | 0.50 | 0.50 | 99 | 1012.6 |
| 20260510021721 | 53 | 324 | 0.0 | 2.0 | 0.00 | 0.50 | 0.50 | 99 | 1012.8 |
| 20260510021219 | 53 | 236 | 1.0 | 2.0 | 0.00 | 0.50 | 0.50 | 99 | 1012.7 |
| 20260510020714 | 53 | 238 | 0.0 | 2.0 | 0.00 | 0.50 | 0.50 | 99 | 1012.7 |
| 20260510020209 | 53 | 144 | 0.0 | 1.0 | 0.00 | 0.50 | 0.50 | 99 | 1012.8 |
| 20260510015704 | 53 | 125 | 0.0 | 2.0 | 0.00 | 0.50 | 0.50 | 99 | 1012.9 |
| 20260510015201 | 53 | 61 | 0.0 | 2.0 | 0.00 | 0.50 | 0.50 | 99 | 1013.0 |
| 20260510014655 | 53 | 83 | 0.0 | 1.0 | 0.00 | 0.50 | 0.50 | 99 | 1012.8 |
| 20260510014153 | 53 | 267 | 1.0 | 2.0 | 0.00 | 0.50 | 0.50 | 99 | 1012.8 |
| 20260510013648 | 53 | 240 | 3.0 | 4.0 | 0.00 | 0.50 | 0.50 | 99 | 1013.0 |
| 20260510013144 | 53 | 262 | 0.0 | 4.0 | 0.00 | 0.50 | 0.50 | 99 | 1013.0 |
| 20260510012644 | 53 | 107 | 3.0 | 4.0 | 0.00 | 0.50 | 0.50 | 99 | 1012.8 |
| 20260510012140 | 53 | 132 | 2.0 | 3.0 | 0.00 | 0.50 | 0.50 | 99 | 1012.8 |
| 20260510011635 | 53 | 133 | 0.0 | 2.0 | 0.00 | 0.50 | 0.50 | 99 | 1012.6 |
| 20260510011131 | 53 | 59 | 1.0 | 2.0 | 0.00 | 0.50 | 0.50 | 99 | 1012.7 |
| 20260510010627 | 53 | 76 | 0.0 | 2.0 | 0.00 | 0.50 | 0.50 | 99 | 1012.3 |
| 20260510010125 | 53 | 113 | 1.0 | 2.0 | 0.00 | 0.50 | 0.50 | 99 | 1012.3 |
| 20260510005620 | 53 | 66 | 0.0 | 0.0 | 0.00 | 0.50 | 0.50 | 99 | 1012.4 |
| 20260510005117 | 53 | 155 | 0.0 | 0.0 | 0.00 | 0.50 | 0.50 | 99 | 1012.3 |
| 20260510004615 | 53 | 155 | 0.0 | 1.0 | 0.00 | 0.50 | 0.50 | 99 | 1012.4 |
| 20260510004113 | 53 | 128 | 1.0 | 1.0 | 0.00 | 0.50 | 0.50 | 99 | 1012.2 |
| 20260510003610 | 53 | 160 | 0.0 | 1.0 | 0.00 | 0.50 | 0.50 | 99 | 1012.4 |
| 20260510003106 | 53 | 119 | 0.0 | 2.0 | 0.00 | 0.50 | 0.50 | 99 | 1012.3 |
| 20260510002600 | 53 | 115 | 0.0 | 1.0 | 0.00 | 0.50 | 0.50 | 99 | 1012.2 |
| 20260510002057 | 53 | 98 | 1.0 | 1.0 | 0.00 | 0.50 | 0.50 | 99 | 1012.0 |
| 20260510001554 | 53 | 139 | 1.0 | 2.0 | 0.00 | 0.50 | 0.50 | 99 | 1012.0 |
| 20260510001053 | 53 | 36 | 1.0 | 2.0 | 0.00 | 0.50 | 0.50 | 99 | 1012.2 |
| 20260510000548 | 53 | 66 | 2.0 | 2.0 | 0.00 | 0.50 | 0.50 | 99 | 1012.0 |
| 20260510000046 | 53 | 100 | 0.0 | 1.0 | 0.00 | 0.50 | 0.50 | 99 | 1011.9 |
| 20260509235542 | 53 | 182 | 0.0 | 2.0 | 0.00 | 0.50 | 0.50 | 99 | 1011.9 |
| 20260509235039 | 53 | 83 | 1.0 | 2.0 | 0.00 | 0.50 | 0.50 | 99 | 1011.9 |
| 20260509234535 | 53 | 137 | 1.0 | 3.0 | 0.00 | 0.50 | 0.50 | 99 | 1011.9 |
| 20260509234033 | 53 | 129 | 0.0 | 3.0 | 0.00 | 0.50 | 0.50 | 99 | 1012.1 |
| 20260509233530 | 53 | 100 | 1.0 | 2.0 | 0.00 | 0.50 | 0.50 | 99 | 1012.0 |
| 20260509233027 | 53 | 303 | 0.0 | 2.0 | 0.00 | 0.50 | 0.50 | 99 | 1012.2 |
| 20260509232524 | 53 | 286 | 2.0 | 4.0 | 0.00 | 0.50 | 0.50 | 99 | 1012.1 |
| 20260509232020 | 52 | 256 | 2.0 | 3.0 | 0.00 | 0.50 | 0.50 | 99 | 1012.3 |
| 20260509231517 | 52 | 110 | 1.0 | 1.0 | 0.00 | 0.50 | 0.50 | 99 | 1012.4 |
| 20260509231015 | 52 | 70 | 0.0 | 2.0 | 0.00 | 0.50 | 0.50 | 99 | 1012.4 |
| 20260509230511 | 52 | 277 | 0.0 | 2.0 | 0.00 | 0.50 | 0.50 | 99 | 1012.5 |
| 20260509230008 | 52 | 73 | 0.0 | 2.0 | 0.00 | 0.50 | 0.50 | 99 | 1012.2 |
| 20260509225504 | 52 | 264 | 0.0 | 2.0 | 0.02 | 0.50 | 0.50 | 99 | 1012.7 |
| 20260509224959 | 52 | 250 | 0.0 | 2.0 | 0.02 | 0.50 | 0.50 | 99 | 1012.5 |
| 20260509224449 | 52 | 243 | 1.0 | 3.0 | 0.00 | 0.50 | 0.50 | 99 | 1012.7 |
| 20260509223946 | 52 | 305 | 0.0 | 2.0 | 0.02 | 0.50 | 0.50 | 99 | 1012.4 |
| 20260509223443 | 52 | 60 | 0.0 | 5.0 | 0.02 | 0.50 | 0.50 | 99 | 1012.7 |
| 20260509222941 | 52 | 318 | 1.0 | 2.0 | 0.05 | 0.49 | 0.49 | 99 | 1012.6 |
| 20260509222436 | 52 | 105 | 0.0 | 2.0 | 0.09 | 0.49 | 0.49 | 99 | 1012.6 |
| 20260509221932 | 52 | 335 | 3.0 | 5.0 | 0.09 | 0.48 | 0.48 | 99 | 1012.7 |
| 20260509221429 | 52 | 161 | 1.0 | 2.0 | 0.07 | 0.47 | 0.47 | 99 | 1012.7 |
| 20260509220924 | 52 | 92 | 0.0 | 2.0 | 0.05 | 0.47 | 0.47 | 99 | 1012.6 |
| 20260509220420 | 51 | 132 | 1.0 | 2.0 | 0.05 | 0.46 | 0.46 | 99 | 1012.9 |
| 20260509215917 | 51 | 117 | 1.0 | 2.0 | 0.05 | 0.46 | 0.46 | 99 | 1012.8 |
| 20260509215412 | 51 | 264 | 1.0 | 3.0 | 0.05 | 0.45 | 0.45 | 99 | 1013.1 |
| 20260509214910 | 51 | 155 | 0.0 | 1.0 | 0.02 | 0.45 | 0.45 | 99 | 1012.7 |
| 20260509214407 | 51 | 251 | 0.0 | 1.0 | 0.00 | 0.45 | 0.45 | 99 | 1012.9 |
| 20260509213904 | 51 | 106 | 0.0 | 0.0 | 0.02 | 0.45 | 0.45 | 99 | 1012.9 |
| 20260509213359 | 51 | 106 | 0.0 | 1.0 | 0.02 | 0.45 | 0.45 | 99 | 1013.0 |
| 20260509212857 | 51 | 55 | 1.0 | 3.0 | 0.00 | 0.44 | 0.44 | 99 | 1012.7 |
| 20260509212355 | 51 | 88 | 0.0 | 3.0 | 0.02 | 0.44 | 0.44 | 99 | 1012.6 |
| 20260509211851 | 51 | 95 | 0.0 | 3.0 | 0.02 | 0.44 | 0.44 | 99 | 1012.5 |
| 20260509211346 | 51 | 317 | 0.0 | 2.0 | 0.00 | 0.44 | 0.44 | 99 | 1012.6 |
| 20260509210843 | 52 | 242 | 0.0 | 2.0 | 0.02 | 0.44 | 0.44 | 99 | 1012.8 |
| 20260509210341 | 52 | 257 | 0.0 | 2.0 | 0.05 | 0.44 | 0.44 | 99 | 1012.6 |
| 20260509205840 | 51 | 224 | 1.0 | 2.0 | 0.07 | 0.43 | 0.43 | 99 | 1012.7 |
| 20260509205335 | 51 | 254 | 0.0 | 1.0 | 0.05 | 0.42 | 0.42 | 99 | 1012.7 |
| 20260509204832 | 51 | 6 | 0.0 | 2.0 | 0.07 | 0.42 | 0.42 | 99 | 1013.0 |
| 20260509204328 | 52 | 95 | 1.0 | 3.0 | 0.09 | 0.42 | 0.42 | 99 | 1012.6 |
| 20260509203824 | 52 | 240 | 0.0 | 2.0 | 0.12 | 0.41 | 0.41 | 99 | 1012.9 |
| 20260509203321 | 52 | 274 | 2.0 | 3.0 | 0.26 | 0.40 | 0.40 | 99 | 1013.0 |
| 20260509202818 | 52 | 314 | 0.0 | 2.0 | 0.31 | 0.39 | 0.39 | 99 | 1013.2 |
| 20260509202314 | 52 | 249 | 1.0 | 2.0 | 0.17 | 0.35 | 0.35 | 99 | 1013.3 |
| 20260509201813 | 52 | 310 | 2.0 | 3.0 | 0.12 | 0.33 | 0.33 | 99 | 1013.0 |
| 20260509201310 | 52 | 236 | 0.0 | 1.0 | 0.12 | 0.32 | 0.32 | 99 | 1013.0 |
| 20260509200807 | 52 | 89 | 1.0 | 1.0 | 0.14 | 0.31 | 0.31 | 99 | 1012.8 |
| 20260509200302 | 52 | 125 | 0.0 | 1.0 | 0.14 | 0.30 | 0.30 | 99 | 1013.0 |
| 20260509195758 | 52 | 289 | 1.0 | 2.0 | 0.12 | 0.29 | 0.29 | 99 | 1013.0 |
| 20260509195253 | 52 | 101 | 0.0 | 2.0 | 0.14 | 0.28 | 0.28 | 99 | 1012.8 |
| 20260509194748 | 52 | 144 | 0.0 | 1.0 | 0.12 | 0.27 | 0.27 | 99 | 1013.2 |
| 20260509194244 | 52 | 230 | 0.0 | 2.0 | 0.12 | 0.26 | 0.26 | 99 | 1013.1 |
| 20260509193742 | 52 | 136 | 1.0 | 2.0 | 0.12 | 0.24 | 0.24 | 99 | 1013.0 |
| 20260509193241 | 52 | 228 | 2.0 | 2.0 | 0.09 | 0.23 | 0.23 | 99 | 1013.1 |
| 20260509192738 | 52 | 70 | 1.0 | 1.0 | 0.14 | 0.22 | 0.22 | 99 | 1013.2 |
| 20260509192232 | 52 | 129 | 0.0 | 2.0 | 0.33 | 0.21 | 0.21 | 98 | 1013.1 |
| 20260509191728 | 53 | 249 | 0.0 | 3.0 | 0.42 | 0.20 | 0.20 | 98 | 1013.1 |
| 20260509191225 | 53 | 213 | 0.0 | 3.0 | 0.31 | 0.15 | 0.15 | 97 | 1013.1 |
| 20260509190721 | 53 | 11 | 2.0 | 5.0 | 0.24 | 0.12 | 0.12 | 96 | 1013.3 |
| 20260509190218 | 53 | 159 | 1.0 | 2.0 | 0.09 | 0.09 | 0.09 | 96 | 1013.2 |
| 20260509185716 | 54 | 231 | 1.0 | 3.0 | 0.05 | 0.08 | 0.08 | 95 | 1013.1 |
| 20260509185212 | 54 | 166 | 2.0 | 2.0 | 0.02 | 0.08 | 0.08 | 94 | 1012.9 |
| 20260509184710 | 54 | 235 | 1.0 | 3.0 | 0.00 | 0.07 | 0.07 | 94 | 1012.8 |
| 20260509184207 | 54 | 213 | 1.0 | 3.0 | 0.00 | 0.07 | 0.07 | 93 | 1012.9 |
| 20260509183703 | 54 | 160 | 0.0 | 2.0 | 0.00 | 0.07 | 0.07 | 93 | 1012.9 |
| 20260509183158 | 54 | 189 | 1.0 | 2.0 | 0.00 | 0.07 | 0.07 | 92 | 1012.9 |
| 20260509182654 | 55 | 213 | 2.0 | 3.0 | 0.00 | 0.07 | 0.07 | 91 | 1012.8 |
| 20260509182152 | 55 | 124 | 2.0 | 3.0 | 0.00 | 0.07 | 0.07 | 91 | 1013.0 |
| 20260509181649 | 55 | 342 | 0.0 | 1.0 | 0.00 | 0.07 | 0.07 | 92 | 1012.7 |
| 20260509181147 | 54 | 158 | 1.0 | 3.0 | 0.00 | 0.07 | 0.07 | 91 | 1012.8 |
| 20260509180643 | 54 | 115 | 0.0 | 2.0 | 0.00 | 0.07 | 0.07 | 92 | 1012.8 |
| 20260509180139 | 54 | 109 | 0.0 | 4.0 | 0.00 | 0.07 | 0.07 | 92 | 1013.0 |
| 20260509175635 | 54 | 91 | 3.0 | 4.0 | 0.00 | 0.07 | 0.07 | 91 | 1013.0 |